{"data":{"norad_id":67967,"intl_designator":"2026-038G","name":"STARLINK-36819","alt_names":[],"object_type":"PAYLOAD","status":"ACTIVE","operator":null,"country":"US","launch_date":"2026-02-25","launch_site_code":"AFWTR","launch_vehicle":null,"mission":null,"orbit_class":"UNKNOWN","rcs_meters":null,"size_class":null,"mass_kg":null,"dimensions":null,"purposes":["comms"],"wikipedia_slug":null,"has_3d_model":false,"image_url":null,"decayed_at":null,"tle_current":{"epoch":"2026-09-19T22:14:25.963296Z","epoch_age_seconds":109158,"freshness":"FRESH","line1":"1 67967U 26038G   26262.92668939  .00012460  00000+0  38757-3 0  9999","line2":"2 67967  97.2853 271.2427 0003252 119.6515 240.5052 15.33447083 33008","mean_motion":15.33447083,"eccentricity":0.0003252,"inclination_deg":97.2853,"raan_deg":271.2427,"arg_perigee_deg":119.6515,"mean_anomaly_deg":240.5052,"bstar":0.00038757,"rev_number":3300,"period_min":93.90607709676,"perigee_km":463.31141416536,"apogee_km":467.76253971996,"semimajor_km":6843.6739769427,"source":"CELESTRAK","updated_at":"2026-09-20T09:00:43.714413Z"}}}